Location: Geroldsau
(48.7259°N, 8.2466°E)
Time: 09:50:43
(UTC+00:00)

FALCON 9 DEB - Pass Details

Date: 20 June 2021
Orbit: 358 x 373 km, 53.0° (Epoch: 01 August)

Event Time Altitude Azimuth Distance (km) Brightness Sun altitude
Rises 00:54:58 0° 293° (WNW) 2,255 6.8 -15.3°
Maximum altitude 01:00:07 50° 16° (NNE) 493 3.8 -15.0°
Drops below altitude 10° 01:03:09 10° 93° (E) 1,386 5.9 -14.8°
Sets 01:05:13 0° 99° (E) 2,232 6.9 -14.7°
